Time,TemperatureF,DewpointF,PressureIn,WindDirection,WindDirectionDegrees,WindSpeedMPH,WindSpeedGustMPH,Humidity,HourlyPrecipIn,Conditions,Clouds,dailyrainin,SolarRadiationWatts/m^2,SoftwareType,DateUTC
2013-08-21 00:01:00,76.3,67.4,30.00,SSW,201,8.0,9.0,74,0.00,,CLR,0.00,0.00,VWS V14.01,2013-08-21 05:01:00,
2013-08-21 00:06:00,76.2,67.3,30.00,SSW,201,8.0,8.0,74,0.00,,CLR,0.00,0.00,VWS V14.01,2013-08-21 05:06:00,
2013-08-21 00:11:00,76.3,67.4,30.00,SSW,194,10.0,14.0,74,0.00,,CLR,0.00,0.00,VWS V14.01,2013-08-21 05:11:00,
2013-08-21 00:16:00,76.3,67.4,30.00,SSW,207,11.0,12.0,74,0.00,,CLR,0.00,0.00,VWS V14.01,2013-08-21 05:16:00,
2013-08-21 00:21:00,76.2,67.3,30.00,SSW,207,11.0,13.0,74,0.00,,CLR,0.00,0.00,VWS V14.01,2013-08-21 05:21:00,
2013-08-21 00:26:00,76.1,67.2,30.00,South,169,7.0,13.0,74,0.00,,CLR,0.00,0.00,VWS V14.01,2013-08-21 05:26:00,
2013-08-21 00:31:00,76.1,67.2,30.00,SSW,210,12.0,12.0,74,0.00,,CLR,0.00,0.00,VWS V14.01,2013-08-21 05:31:00,
2013-08-21 00:36:00,76.0,67.1,30.00,SSW,212,11.0,13.0,74,0.00,,CLR,0.00,0.00,VWS V14.01,2013-08-21 05:36:00,
2013-08-21 00:41:00,75.7,67.2,30.00,SSW,203,9.0,13.0,75,0.00,,CLR,0.00,0.00,VWS V14.01,2013-08-21 05:41:00,
2013-08-21 00:46:00,75.7,67.2,30.00,SSW,204,8.0,12.0,75,0.00,,CLR,0.00,0.00,VWS V14.01,2013-08-21 05:46:00,
2013-08-21 00:51:00,75.7,67.2,30.00,SSW,207,10.0,14.0,75,0.00,,CLR,0.00,0.00,VWS V14.01,2013-08-21 05:51:00,
2013-08-21 00:56:00,75.6,67.1,30.00,SSW,199,8.0,8.0,75,0.00,,CLR,0.00,0.00,VWS V14.01,2013-08-21 05:56:00,
2013-08-21 01:01:00,75.6,67.1,30.00,SSW,210,12.0,13.0,75,0.00,,CLR,0.00,0.00,VWS V14.01,2013-08-21 06:01:00,
2013-08-21 01:07:00,75.5,67.0,30.00,SSW,201,10.0,10.0,75,0.00,,CLR,0.00,0.00,VWS V14.01,2013-08-21 06:07:00,
2013-08-21 01:12:00,75.5,67.4,30.00,SSW,207,8.0,13.0,76,0.00,,CLR,0.00,0.00,VWS V14.01,2013-08-21 06:12:00,
2013-08-21 01:17:00,75.4,67.3,30.00,SSW,193,11.0,11.0,76,0.00,,CLR,0.00,0.00,VWS V14.01,2013-08-21 06:17:00,
2013-08-21 01:22:00,75.4,67.3,30.00,SSW,197,10.0,13.0,76,0.00,,CLR,0.00,0.00,VWS V14.01,2013-08-21 06:22:00,
2013-08-21 01:27:00,75.4,67.3,30.00,SSW,210,5.0,12.0,76,0.00,,CLR,0.00,0.00,VWS V14.01,2013-08-21 06:27:00,
2013-08-21 01:32:00,75.1,67.4,30.00,SW,220,9.0,12.0,77,0.00,,CLR,0.00,0.00,VWS V14.01,2013-08-21 06:32:00,
2013-08-21 01:37:00,75.1,67.4,30.00,SSW,212,8.0,8.0,77,0.00,,CLR,0.00,0.00,VWS V14.01,2013-08-21 06:37:00,
2013-08-21 01:42:00,74.7,67.0,30.01,SSW,208,7.0,8.0,77,0.00,,CLR,0.00,0.00,VWS V14.01,2013-08-21 06:42:00,
2013-08-21 01:47:00,74.6,67.3,30.01,SSW,210,5.0,7.0,78,0.00,,CLR,0.00,0.00,VWS V14.01,2013-08-21 06:47:00,
2013-08-21 01:52:00,74.8,67.5,30.01,SSW,211,5.0,7.0,78,0.00,,CLR,0.00,0.00,VWS V14.01,2013-08-21 06:52:00,
2013-08-21 01:57:00,74.6,67.3,30.01,SW,223,7.0,10.0,78,0.00,,CLR,0.00,0.00,VWS V14.01,2013-08-21 06:57:00,
2013-08-21 02:02:00,74.5,67.2,30.01,South,189,6.0,10.0,78,0.00,,CLR,0.00,0.00,VWS V14.01,2013-08-21 07:02:00,
2013-08-21 02:07:00,74.5,67.2,30.01,SSW,204,6.0,7.0,78,0.00,,CLR,0.00,0.00,VWS V14.01,2013-08-21 07:07:00,
2013-08-21 02:12:00,74.4,67.1,30.00,SW,222,7.0,10.0,78,0.00,,CLR,0.00,0.00,VWS V14.01,2013-08-21 07:12:00,
2013-08-21 02:17:00,74.4,67.1,30.00,SSW,211,6.0,13.0,78,0.00,,CLR,0.00,0.00,VWS V14.01,2013-08-21 07:17:00,
2013-08-21 02:22:00,74.3,67.0,30.00,South,184,6.0,7.0,78,0.00,,CLR,0.00,0.00,VWS V14.01,2013-08-21 07:22:00,
2013-08-21 02:27:00,74.2,67.3,30.00,SSW,199,5.0,7.0,79,0.00,,CLR,0.00,0.00,VWS V14.01,2013-08-21 07:27:00,
2013-08-21 02:32:00,73.9,67.0,30.00,SW,214,7.0,11.0,79,0.00,,CLR,0.00,0.00,VWS V14.01,2013-08-21 07:32:00,
2013-08-21 02:37:00,73.7,67.2,30.00,SSW,212,7.0,12.0,80,0.00,,CLR,0.00,0.00,VWS V14.01,2013-08-21 07:37:00,
2013-08-21 02:42:00,73.7,67.2,30.00,SW,222,12.0,12.0,80,0.00,,CLR,0.00,0.00,VWS V14.01,2013-08-21 07:42:00,
2013-08-21 02:47:00,73.9,67.0,30.00,SW,225,6.0,10.0,79,0.00,,CLR,0.00,0.00,VWS V14.01,2013-08-21 07:47:00,
2013-08-21 02:52:00,74.0,67.1,30.00,SW,223,9.0,14.0,79,0.00,,CLR,0.00,0.00,VWS V14.01,2013-08-21 07:52:00,
2013-08-21 02:57:00,74.1,67.2,30.00,SW,228,8.0,13.0,79,0.00,,CLR,0.00,0.00,VWS V14.01,2013-08-21 07:57:00,
2013-08-21 03:02:00,74.1,67.2,30.00,SW,224,7.0,11.0,79,0.00,,CLR,0.00,0.00,VWS V14.01,2013-08-21 08:02:00,
2013-08-21 03:07:00,74.0,67.1,30.00,SSW,211,10.0,11.0,79,0.00,,CLR,0.00,0.00,VWS V14.01,2013-08-21 08:07:00,
2013-08-21 03:12:00,73.9,67.0,30.00,SW,220,10.0,12.0,79,0.00,,CLR,0.00,0.00,VWS V14.01,2013-08-21 08:12:00,
2013-08-21 03:17:00,73.7,67.2,30.00,SSW,205,7.0,11.0,80,0.00,,CLR,0.00,0.00,VWS V14.01,2013-08-21 08:17:00,
2013-08-21 03:22:00,73.5,67.0,30.00,SW,221,10.0,12.0,80,0.00,,CLR,0.00,0.00,VWS V14.01,2013-08-21 08:22:00,
2013-08-21 03:27:00,73.5,67.0,30.00,SSW,210,10.0,15.0,80,0.00,,CLR,0.00,0.00,VWS V14.01,2013-08-21 08:27:00,
2013-08-21 03:32:00,73.5,67.0,30.00,SSW,211,10.0,13.0,80,0.00,,CLR,0.00,0.00,VWS V14.01,2013-08-21 08:32:00,
2013-08-21 03:37:00,73.5,67.0,30.00,SW,215,11.0,13.0,80,0.00,,CLR,0.00,0.00,VWS V14.01,2013-08-21 08:37:00,
2013-08-21 03:42:00,73.5,67.0,30.00,SW,214,10.0,11.0,80,0.00,,CLR,0.00,0.00,VWS V14.01,2013-08-21 08:42:00,
2013-08-21 03:47:00,73.5,67.0,30.00,SW,229,12.0,13.0,80,0.00,,CLR,0.00,0.00,VWS V14.01,2013-08-21 08:47:00,
2013-08-21 03:52:00,73.4,66.9,30.00,SW,223,7.0,11.0,80,0.00,,CLR,0.00,0.00,VWS V14.01,2013-08-21 08:52:00,
2013-08-21 03:57:00,73.3,66.8,30.00,SSW,213,10.0,12.0,80,0.00,,CLR,0.00,0.00,VWS V14.01,2013-08-21 08:57:00,
2013-08-21 04:02:00,73.1,66.9,30.00,SW,230,6.0,11.0,81,0.00,,CLR,0.00,0.00,VWS V14.01,2013-08-21 09:02:00,
2013-08-21 04:07:00,73.2,67.0,30.00,SSW,195,11.0,11.0,81,0.00,,CLR,0.00,0.00,VWS V14.01,2013-08-21 09:07:00,
2013-08-21 04:12:00,73.1,66.9,30.00,SW,232,11.0,14.0,81,0.00,,CLR,0.00,0.00,VWS V14.01,2013-08-21 09:12:00,
2013-08-21 04:17:00,73.1,66.9,30.00,SW,234,9.0,11.0,81,0.00,,CLR,0.00,0.00,VWS V14.01,2013-08-21 09:17:00,
2013-08-21 04:22:00,73.0,66.8,30.00,SW,230,6.0,9.0,81,0.00,,CLR,0.00,0.00,VWS V14.01,2013-08-21 09:22:00,
2013-08-21 04:27:00,72.9,66.7,30.00,SSW,212,10.0,11.0,81,0.00,,CLR,0.00,0.00,VWS V14.01,2013-08-21 09:27:00,
2013-08-21 04:32:00,72.7,66.5,30.00,SW,220,8.0,11.0,81,0.00,,CLR,0.00,0.00,VWS V14.01,2013-08-21 09:32:00,
2013-08-21 04:37:00,72.7,66.9,30.00,SW,223,11.0,11.0,82,0.00,,CLR,0.00,0.00,VWS V14.01,2013-08-21 09:37:00,
2013-08-21 04:42:00,72.6,66.8,30.00,SSW,202,7.0,11.0,82,0.00,,CLR,0.00,0.00,VWS V14.01,2013-08-21 09:42:00,
2013-08-21 04:47:00,72.4,66.6,30.00,SW,218,10.0,10.0,82,0.00,,CLR,0.00,0.00,VWS V14.01,2013-08-21 09:47:00,
2013-08-21 04:52:00,72.4,66.6,30.00,SW,218,7.0,9.0,82,0.00,,CLR,0.00,0.00,VWS V14.01,2013-08-21 09:52:00,
2013-08-21 04:57:00,72.6,66.8,30.00,SW,221,9.0,11.0,82,0.00,,CLR,0.00,0.00,VWS V14.01,2013-08-21 09:57:00,
2013-08-21 05:02:00,72.6,66.8,30.00,SW,216,7.0,7.0,82,0.00,,CLR,0.00,0.00,VWS V14.01,2013-08-21 10:02:00,
2013-08-21 05:07:00,72.5,66.7,30.00,SW,223,5.0,7.0,82,0.00,,CLR,0.00,0.00,VWS V14.01,2013-08-21 10:07:00,
2013-08-21 05:12:00,72.3,66.5,30.00,SSW,205,5.0,9.0,82,0.00,,CLR,0.00,0.00,VWS V14.01,2013-08-21 10:12:00,
2013-08-21 05:17:00,72.2,66.8,30.00,SW,228,11.0,12.0,83,0.00,,CLR,0.00,0.00,VWS V14.01,2013-08-21 10:17:00,
2013-08-21 05:22:00,72.3,66.8,30.00,SSW,211,6.0,10.0,83,0.00,,CLR,0.00,0.00,VWS V14.01,2013-08-21 10:22:00,
2013-08-21 05:27:00,72.3,66.5,30.01,SSW,204,10.0,10.0,82,0.00,,CLR,0.00,0.00,VWS V14.01,2013-08-21 10:27:00,
2013-08-21 05:32:00,72.1,66.7,30.00,SSW,213,9.0,10.0,83,0.00,,CLR,0.00,0.00,VWS V14.01,2013-08-21 10:32:00,
2013-08-21 05:37:00,72.0,66.6,30.00,SW,220,5.0,10.0,83,0.00,,CLR,0.00,0.00,VWS V14.01,2013-08-21 10:37:00,
2013-08-21 05:42:00,71.9,66.5,30.01,SW,220,5.0,7.0,83,0.00,,CLR,0.00,0.00,VWS V14.01,2013-08-21 10:42:00,
2013-08-21 05:47:00,71.9,66.5,30.01,SW,224,5.0,7.0,83,0.00,,CLR,0.00,0.00,VWS V14.01,2013-08-21 10:47:00,
2013-08-21 05:52:00,71.8,66.4,30.01,SSW,204,8.0,9.0,83,0.00,,CLR,0.00,0.00,VWS V14.01,2013-08-21 10:52:00,
2013-08-21 05:57:00,71.8,66.4,30.01,SW,216,6.0,11.0,83,0.00,,CLR,0.00,0.00,VWS V14.01,2013-08-21 10:57:00,
2013-08-21 06:02:00,71.9,66.5,30.01,SW,219,4.0,10.0,83,0.00,,CLR,0.00,0.00,VWS V14.01,2013-08-21 11:02:00,
2013-08-21 06:07:00,71.8,66.4,30.01,SW,214,6.0,8.0,83,0.00,,CLR,0.00,0.00,VWS V14.01,2013-08-21 11:07:00,
2013-08-21 06:12:00,71.7,66.6,30.02,SW,220,7.0,9.0,84,0.00,,CLR,0.00,0.00,VWS V14.01,2013-08-21 11:12:00,
2013-08-21 06:17:00,71.9,66.8,30.02,SW,222,7.0,10.0,84,0.00,,CLR,0.00,0.00,VWS V14.01,2013-08-21 11:17:00,
2013-08-21 06:22:00,71.8,66.4,30.02,SW,217,5.0,9.0,83,0.00,,CLR,0.00,5.00,VWS V14.01,2013-08-21 11:22:00,
2013-08-21 06:27:00,71.7,66.6,30.02,SW,222,6.0,9.0,84,0.00,,CLR,0.00,5.00,VWS V14.01,2013-08-21 11:27:00,
2013-08-21 06:32:00,71.6,66.5,30.02,SW,219,6.0,9.0,84,0.00,,CLR,0.00,9.00,VWS V14.01,2013-08-21 11:32:00,
2013-08-21 06:37:00,71.5,66.4,30.02,SW,226,10.0,10.0,84,0.00,,CLR,0.00,11.00,VWS V14.01,2013-08-21 11:37:00,
2013-08-21 06:42:00,71.4,66.3,30.02,SSW,212,7.0,11.0,84,0.00,,CLR,0.00,14.00,VWS V14.01,2013-08-21 11:42:00,
2013-08-21 06:47:00,71.5,66.4,30.02,SW,221,7.0,10.0,84,0.00,,CLR,0.00,18.00,VWS V14.01,2013-08-21 11:47:00,
2013-08-21 06:52:00,71.6,66.5,30.02,SW,225,6.0,7.0,84,0.00,,CLR,0.00,25.00,VWS V14.01,2013-08-21 11:52:00,
2013-08-21 06:57:00,71.7,66.9,30.02,SSW,204,9.0,11.0,85,0.00,,CLR,0.00,32.00,VWS V14.01,2013-08-21 11:57:00,
2013-08-21 07:02:00,71.8,67.1,30.02,SSW,205,6.0,7.0,85,0.00,,CLR,0.00,35.00,VWS V14.01,2013-08-21 12:02:00,
2013-08-21 07:07:00,71.8,67.1,30.03,SSW,204,5.0,9.0,85,0.00,,CLR,0.00,44.00,VWS V14.01,2013-08-21 12:07:00,
2013-08-21 07:12:00,72.0,67.2,30.03,SW,235,7.0,7.0,85,0.00,,CLR,0.00,56.00,VWS V14.01,2013-08-21 12:12:00,
2013-08-21 07:17:00,72.2,67.1,30.03,SSW,211,5.0,10.0,84,0.00,,CLR,0.00,58.00,VWS V14.01,2013-08-21 12:17:00,
2013-08-21 07:22:00,72.4,67.3,30.03,SW,218,7.0,11.0,84,0.00,,CLR,0.00,60.00,VWS V14.01,2013-08-21 12:22:00,
2013-08-21 07:27:00,72.5,67.4,30.03,SW,214,5.0,10.0,84,0.00,,CLR,0.00,60.00,VWS V14.01,2013-08-21 12:27:00,
2013-08-21 07:32:00,72.6,67.2,30.03,SSW,213,10.0,12.0,83,0.00,,CLR,0.00,72.00,VWS V14.01,2013-08-21 12:32:00,
2013-08-21 07:37:00,72.8,67.3,30.03,SSW,207,5.0,10.0,83,0.00,,CLR,0.00,77.00,VWS V14.01,2013-08-21 12:37:00,
2013-08-21 07:42:00,73.0,67.5,30.03,SSW,213,9.0,10.0,83,0.00,,CLR,0.00,86.00,VWS V14.01,2013-08-21 12:42:00,
2013-08-21 07:47:00,73.1,67.6,30.03,SSW,207,8.0,11.0,83,0.00,,CLR,0.00,65.00,VWS V14.01,2013-08-21 12:47:00,
2013-08-21 07:52:00,73.0,67.5,30.03,SW,222,10.0,11.0,83,0.00,,CLR,0.00,69.00,VWS V14.01,2013-08-21 12:52:00,
2013-08-21 07:57:00,73.0,67.5,30.03,SSW,200,8.0,11.0,83,0.00,,CLR,0.00,86.00,VWS V14.01,2013-08-21 12:57:00,
2013-08-21 08:02:00,73.3,67.8,30.03,SW,214,8.0,12.0,83,0.00,,CLR,0.00,97.00,VWS V14.01,2013-08-21 13:02:00,
2013-08-21 08:07:00,73.5,67.7,30.03,SSW,208,8.0,9.0,82,0.00,,CLR,0.00,111.00,VWS V14.01,2013-08-21 13:07:00,
2013-08-21 08:12:00,73.9,68.1,30.03,SW,222,10.0,13.0,82,0.00,,CLR,0.00,132.00,VWS V14.01,2013-08-21 13:12:00,
2013-08-21 08:17:00,74.5,68.3,30.03,SSW,207,10.0,12.0,81,0.00,,CLR,0.00,132.00,VWS V14.01,2013-08-21 13:17:00,
2013-08-21 08:22:00,74.8,68.6,30.03,SW,214,9.0,11.0,81,0.00,,CLR,0.00,128.00,VWS V14.01,2013-08-21 13:22:00,
2013-08-21 08:27:00,75.0,68.4,30.03,SW,224,9.0,13.0,80,0.00,,CLR,0.00,118.00,VWS V14.01,2013-08-21 13:27:00,
2013-08-21 08:32:00,75.0,68.1,30.03,SW,220,11.0,12.0,79,0.00,,CLR,0.00,123.00,VWS V14.01,2013-08-21 13:32:00,
2013-08-21 08:37:00,75.2,68.6,30.03,SW,233,9.0,11.0,80,0.00,,CLR,0.00,123.00,VWS V14.01,2013-08-21 13:37:00,
2013-08-21 08:42:00,75.4,68.8,30.03,SW,226,11.0,13.0,80,0.00,,CLR,0.00,105.00,VWS V14.01,2013-08-21 13:42:00,
2013-08-21 08:47:00,75.5,68.5,30.03,SW,225,8.0,13.0,79,0.00,,CLR,0.00,142.00,VWS V14.01,2013-08-21 13:47:00,
2013-08-21 08:52:00,75.8,68.5,30.03,SW,229,12.0,15.0,78,0.00,,CLR,0.00,223.00,VWS V14.01,2013-08-21 13:52:00,
2013-08-21 08:57:00,76.4,69.0,30.03,SSW,212,10.0,11.0,78,0.00,,CLR,0.00,221.00,VWS V14.01,2013-08-21 13:57:00,
2013-08-21 09:02:00,76.9,69.2,30.03,SW,223,9.0,13.0,77,0.00,,CLR,0.00,236.00,VWS V14.01,2013-08-21 14:02:00,
2013-08-21 09:07:00,77.3,69.2,30.03,SW,232,11.0,13.0,76,0.00,,CLR,0.00,232.00,VWS V14.01,2013-08-21 14:07:00,
2013-08-21 09:12:00,77.4,68.9,30.03,SW,223,6.0,11.0,75,0.00,,CLR,0.00,246.00,VWS V14.01,2013-08-21 14:12:00,
2013-08-21 09:17:00,77.8,69.6,30.03,SSW,203,12.0,14.0,76,0.00,,CLR,0.00,297.00,VWS V14.01,2013-08-21 14:17:00,
2013-08-21 09:23:00,78.5,69.5,30.03,SSW,201,10.0,12.0,74,0.00,,CLR,0.00,339.00,VWS V14.01,2013-08-21 14:23:00,
2013-08-21 09:28:00,78.9,69.5,30.03,SW,214,8.0,13.0,73,0.00,,CLR,0.00,360.00,VWS V14.01,2013-08-21 14:28:00,
2013-08-21 09:33:00,79.2,69.8,30.03,SW,223,9.0,12.0,73,0.00,,CLR,0.00,366.00,VWS V14.01,2013-08-21 14:33:00,
2013-08-21 09:38:00,79.3,70.3,30.03,SSW,202,10.0,10.0,74,0.00,,CLR,0.00,343.00,VWS V14.01,2013-08-21 14:38:00,
2013-08-21 09:43:00,79.8,70.4,30.03,SSW,205,9.0,13.0,73,0.00,,CLR,0.00,408.00,VWS V14.01,2013-08-21 14:43:00,
2013-08-21 09:48:00,80.2,70.4,30.03,SSW,195,9.0,11.0,72,0.00,,CLR,0.00,420.00,VWS V14.01,2013-08-21 14:48:00,
2013-08-21 09:53:00,80.6,70.8,30.03,SW,216,6.0,11.0,72,0.00,,CLR,0.00,369.00,VWS V14.01,2013-08-21 14:53:00,
2013-08-21 09:58:00,80.7,70.4,30.03,SSW,212,9.0,11.0,71,0.00,,CLR,0.00,374.00,VWS V14.01,2013-08-21 14:58:00,
2013-08-21 10:03:00,80.7,70.4,30.03,SW,216,6.0,11.0,71,0.00,,CLR,0.00,371.00,VWS V14.01,2013-08-21 15:03:00,
2013-08-21 10:08:00,81.3,71.0,30.03,SSW,204,11.0,11.0,71,0.00,,CLR,0.00,461.00,VWS V14.01,2013-08-21 15:08:00,
2013-08-21 10:13:00,81.7,70.6,30.03,SW,224,9.0,13.0,69,0.00,,CLR,0.00,480.00,VWS V14.01,2013-08-21 15:13:00,
2013-08-21 10:18:00,82.2,71.0,30.03,SW,221,11.0,12.0,69,0.00,,CLR,0.00,499.00,VWS V14.01,2013-08-21 15:18:00,
2013-08-21 10:23:00,82.6,71.0,30.03,SSW,212,9.0,10.0,68,0.00,,CLR,0.00,522.00,VWS V14.01,2013-08-21 15:23:00,
2013-08-21 10:28:00,82.9,70.4,30.03,SW,224,7.0,13.0,66,0.00,,CLR,0.00,538.00,VWS V14.01,2013-08-21 15:28:00,
2013-08-21 10:33:00,83.3,70.8,30.03,SW,214,11.0,14.0,66,0.00,,CLR,0.00,550.00,VWS V14.01,2013-08-21 15:33:00,
2013-08-21 10:38:00,83.8,70.8,30.03,SW,218,11.0,15.0,65,0.00,,CLR,0.00,568.00,VWS V14.01,2013-08-21 15:38:00,
2013-08-21 10:43:00,84.1,72.0,30.03,SW,226,7.0,13.0,67,0.00,,CLR,0.00,592.00,VWS V14.01,2013-08-21 15:43:00,
2013-08-21 10:48:00,84.7,71.6,30.02,SSW,207,12.0,13.0,65,0.00,,CLR,0.00,622.00,VWS V14.01,2013-08-21 15:48:00,
2013-08-21 10:53:00,84.8,71.7,30.02,SW,221,8.0,12.0,65,0.00,,CLR,0.00,584.00,VWS V14.01,2013-08-21 15:53:00,
2013-08-21 10:58:00,84.6,71.1,30.03,SW,230,10.0,13.0,64,0.00,,CLR,0.00,657.00,VWS V14.01,2013-08-21 15:58:00,
2013-08-21 11:03:00,85.6,71.6,30.03,SW,214,10.0,14.0,63,0.00,,CLR,0.00,652.00,VWS V14.01,2013-08-21 16:03:00,
2013-08-21 11:08:00,85.9,71.8,30.03,SW,220,9.0,13.0,63,0.00,,CLR,0.00,638.00,VWS V14.01,2013-08-21 16:08:00,
2013-08-21 11:13:00,86.1,71.6,30.03,SW,218,12.0,15.0,62,0.00,,CLR,0.00,564.00,VWS V14.01,2013-08-21 16:13:00,
2013-08-21 11:18:00,86.1,72.0,30.03,SSW,207,9.0,14.0,63,0.00,,CLR,0.00,613.00,VWS V14.01,2013-08-21 16:18:00,
2013-08-21 11:23:00,86.3,71.3,30.02,SW,232,8.0,13.0,61,0.00,,CLR,0.00,601.00,VWS V14.01,2013-08-21 16:23:00,
2013-08-21 11:28:00,86.5,71.5,30.03,SSW,207,10.0,12.0,61,0.00,,CLR,0.00,594.00,VWS V14.01,2013-08-21 16:28:00,
2013-08-21 11:33:00,86.6,72.0,30.03,SW,214,9.0,12.0,62,0.00,,CLR,0.00,608.00,VWS V14.01,2013-08-21 16:33:00,
2013-08-21 11:38:00,87.1,71.5,30.03,SW,228,12.0,16.0,60,0.00,,CLR,0.00,621.00,VWS V14.01,2013-08-21 16:38:00,
2013-08-21 11:43:00,87.4,70.8,30.03,SW,233,9.0,14.0,58,0.00,,CLR,0.00,647.00,VWS V14.01,2013-08-21 16:43:00,
2013-08-21 11:48:00,87.8,71.7,30.03,SW,230,10.0,12.0,59,0.00,,CLR,0.00,682.00,VWS V14.01,2013-08-21 16:48:00,
2013-08-21 11:53:00,88.0,71.9,30.03,SW,222,10.0,12.0,59,0.00,,CLR,0.00,724.00,VWS V14.01,2013-08-21 16:53:00,
2013-08-21 11:58:00,87.9,70.8,30.03,WSW,248,12.0,13.0,57,0.00,,CLR,0.00,745.00,VWS V14.01,2013-08-21 16:58:00,
2013-08-21 12:03:00,87.9,70.8,30.03,WNW,287,10.0,13.0,57,0.00,,CLR,0.00,758.00,VWS V14.01,2013-08-21 17:03:00,
2013-08-21 12:08:00,88.1,70.4,30.03,WSW,255,9.0,17.0,56,0.00,,CLR,0.00,770.00,VWS V14.01,2013-08-21 17:08:00,
2013-08-21 12:13:00,88.0,70.9,30.03,SW,234,11.0,14.0,57,0.00,,CLR,0.00,777.00,VWS V14.01,2013-08-21 17:13:00,
2013-08-21 12:18:00,88.5,71.3,30.03,SSW,199,7.0,12.0,57,0.00,,CLR,0.00,766.00,VWS V14.01,2013-08-21 17:18:00,
2013-08-21 12:23:00,89.7,72.4,30.02,WSW,242,12.0,13.0,57,0.00,,CLR,0.00,784.00,VWS V14.01,2013-08-21 17:23:00,
2013-08-21 12:28:00,89.3,70.5,30.02,WSW,238,11.0,15.0,54,0.00,,CLR,0.00,805.00,VWS V14.01,2013-08-21 17:28:00,
2013-08-21 12:33:00,89.1,71.4,30.02,SSW,212,14.0,15.0,56,0.00,,CLR,0.00,687.00,VWS V14.01,2013-08-21 17:33:00,
2013-08-21 12:38:00,90.1,72.3,30.02,SW,230,10.0,13.0,56,0.00,,CLR,0.00,812.00,VWS V14.01,2013-08-21 17:38:00,
2013-08-21 12:43:00,90.1,71.2,30.02,WSW,245,11.0,14.0,54,0.00,,CLR,0.00,819.00,VWS V14.01,2013-08-21 17:43:00,
2013-08-21 12:48:00,90.2,72.4,30.02,SW,229,10.0,13.0,56,0.00,,CLR,0.00,828.00,VWS V14.01,2013-08-21 17:48:00,
2013-08-21 12:53:00,90.4,71.5,30.02,SW,232,14.0,14.0,54,0.00,,CLR,0.00,798.00,VWS V14.01,2013-08-21 17:53:00,
2013-08-21 12:58:00,90.6,71.1,30.01,SW,227,8.0,12.0,53,0.00,,CLR,0.00,830.00,VWS V14.01,2013-08-21 17:58:00,
2013-08-21 13:03:00,90.7,71.8,30.01,South,183,7.0,11.0,54,0.00,,CLR,0.00,835.00,VWS V14.01,2013-08-21 18:03:00,
2013-08-21 13:08:00,91.8,71.7,30.01,SW,218,11.0,15.0,52,0.00,,CLR,0.00,865.00,VWS V14.01,2013-08-21 18:08:00,
2013-08-21 13:13:00,91.6,72.1,30.01,SW,229,6.0,14.0,53,0.00,,CLR,0.00,919.00,VWS V14.01,2013-08-21 18:13:00,
2013-08-21 13:18:00,91.5,71.4,30.01,SW,220,11.0,15.0,52,0.00,,CLR,0.00,914.00,VWS V14.01,2013-08-21 18:18:00,
2013-08-21 13:23:00,91.8,71.7,30.00,SW,226,14.0,16.0,52,0.00,,CLR,0.00,833.00,VWS V14.01,2013-08-21 18:23:00,
2013-08-21 13:28:00,92.1,72.5,30.00,SW,224,7.0,13.0,53,0.00,,CLR,0.00,1063.00,VWS V14.01,2013-08-21 18:28:00,
2013-08-21 13:33:00,92.1,70.8,30.00,SSW,204,12.0,20.0,50,0.00,,CLR,0.00,1063.00,VWS V14.01,2013-08-21 18:33:00,
2013-08-21 13:38:00,91.2,70.6,30.00,SW,234,18.0,19.0,51,0.00,,CLR,0.00,564.00,VWS V14.01,2013-08-21 18:38:00,
2013-08-21 13:43:00,90.2,70.8,30.00,WSW,248,10.0,13.0,53,0.00,,CLR,0.00,483.00,VWS V14.01,2013-08-21 18:43:00,
2013-08-21 13:48:00,90.2,71.3,30.00,WSW,249,12.0,12.0,54,0.00,,CLR,0.00,615.00,VWS V14.01,2013-08-21 18:48:00,
2013-08-21 13:53:00,90.4,72.1,30.00,SSW,197,9.0,12.0,55,0.00,,CLR,0.00,575.00,VWS V14.01,2013-08-21 18:53:00,
2013-08-21 13:58:00,90.8,71.3,30.00,WSW,243,12.0,14.0,53,0.00,,CLR,0.00,909.00,VWS V14.01,2013-08-21 18:58:00,
2013-08-21 14:03:00,91.7,72.2,30.00,WSW,247,10.0,13.0,53,0.00,,CLR,0.00,889.00,VWS V14.01,2013-08-21 19:03:00,
2013-08-21 14:08:00,92.0,73.0,30.00,WSW,241,9.0,12.0,54,0.00,,CLR,0.00,874.00,VWS V14.01,2013-08-21 19:08:00,
2013-08-21 14:13:00,91.8,71.1,30.00,SW,228,6.0,14.0,51,0.00,,CLR,0.00,392.00,VWS V14.01,2013-08-21 19:13:00,
2013-08-21 14:18:00,90.9,72.0,30.00,SW,218,7.0,14.0,54,0.00,,CLR,0.00,406.00,VWS V14.01,2013-08-21 19:18:00,
2013-08-21 14:23:00,91.7,71.6,30.00,WSW,249,7.0,12.0,52,0.00,,CLR,0.00,670.00,VWS V14.01,2013-08-21 19:23:00,
2013-08-21 14:28:00,91.6,72.1,30.00,SW,222,12.0,13.0,53,0.00,,CLR,0.00,508.00,VWS V14.01,2013-08-21 19:28:00,
2013-08-21 14:33:00,91.7,72.7,30.00,SW,222,11.0,12.0,54,0.00,,CLR,0.00,947.00,VWS V14.01,2013-08-21 19:33:00,
2013-08-21 14:38:00,92.4,72.2,30.00,SW,228,10.0,15.0,52,0.00,,CLR,0.00,554.00,VWS V14.01,2013-08-21 19:38:00,
2013-08-21 14:43:00,91.0,71.5,30.00,SW,215,11.0,14.0,53,0.00,,CLR,0.00,441.00,VWS V14.01,2013-08-21 19:43:00,
2013-08-21 14:48:00,90.2,70.8,30.00,SW,221,12.0,15.0,53,0.00,,CLR,0.00,457.00,VWS V14.01,2013-08-21 19:48:00,
2013-08-21 14:53:00,90.2,71.3,30.00,SW,228,8.0,12.0,54,0.00,,CLR,0.00,547.00,VWS V14.01,2013-08-21 19:53:00,
2013-08-21 14:58:00,90.8,72.4,30.00,WSW,247,12.0,12.0,55,0.00,,CLR,0.00,635.00,VWS V14.01,2013-08-21 19:58:00,
2013-08-21 15:03:00,90.9,72.5,30.00,SW,229,9.0,12.0,55,0.00,,CLR,0.00,536.00,VWS V14.01,2013-08-21 20:03:00,
2013-08-21 15:08:00,90.8,71.9,30.00,SW,231,9.0,11.0,54,0.00,,CLR,0.00,512.00,VWS V14.01,2013-08-21 20:08:00,
2013-08-21 15:13:00,90.2,72.4,30.00,SW,217,11.0,13.0,56,0.00,,CLR,0.00,425.00,VWS V14.01,2013-08-21 20:13:00,
2013-08-21 15:18:00,89.9,71.6,30.00,WSW,246,9.0,11.0,55,0.00,,CLR,0.00,415.00,VWS V14.01,2013-08-21 20:18:00,
2013-08-21 15:23:00,89.6,71.8,30.00,WSW,238,7.0,10.0,56,0.00,,CLR,0.00,362.00,VWS V14.01,2013-08-21 20:23:00,
2013-08-21 15:28:00,89.6,71.3,30.00,SW,224,6.0,11.0,55,0.00,,CLR,0.00,350.00,VWS V14.01,2013-08-21 20:28:00,
2013-08-21 15:33:00,89.5,72.3,30.00,South,191,9.0,10.0,57,0.00,,CLR,0.00,346.00,VWS V14.01,2013-08-21 20:33:00,
2013-08-21 15:38:00,89.3,72.1,30.00,SSW,208,7.0,10.0,57,0.00,,CLR,0.00,339.00,VWS V14.01,2013-08-21 20:38:00,
2013-08-21 15:43:00,89.2,71.5,30.00,SSW,213,7.0,9.0,56,0.00,,CLR,0.00,330.00,VWS V14.01,2013-08-21 20:43:00,
2013-08-21 15:48:00,89.0,71.3,29.99,SW,228,5.0,9.0,56,0.00,,CLR,0.00,334.00,VWS V14.01,2013-08-21 20:48:00,
2013-08-21 15:53:00,89.3,72.1,30.00,SW,224,9.0,10.0,57,0.00,,CLR,0.00,394.00,VWS V14.01,2013-08-21 20:53:00,
2013-08-21 15:58:00,89.6,72.4,29.99,SW,226,7.0,10.0,57,0.00,,CLR,0.00,394.00,VWS V14.01,2013-08-21 20:58:00,
2013-08-21 16:03:00,89.4,71.7,29.99,SW,226,6.0,10.0,56,0.00,,CLR,0.00,295.00,VWS V14.01,2013-08-21 21:03:00,
2013-08-21 16:08:00,88.9,72.2,29.99,SW,218,6.0,10.0,58,0.00,,CLR,0.00,350.00,VWS V14.01,2013-08-21 21:08:00,
2013-08-21 16:13:00,89.1,71.9,29.99,SW,220,8.0,9.0,57,0.00,,CLR,0.00,338.00,VWS V14.01,2013-08-21 21:13:00,
2013-08-21 16:18:00,89.7,72.4,29.99,SW,224,9.0,10.0,57,0.00,,CLR,0.00,469.00,VWS V14.01,2013-08-21 21:18:00,
2013-08-21 16:24:00,90.6,73.3,29.98,SW,235,5.0,8.0,57,0.00,,CLR,0.00,564.00,VWS V14.01,2013-08-21 21:24:00,
2013-08-21 16:29:00,90.9,72.5,29.98,SSW,205,6.0,10.0,55,0.00,,CLR,0.00,552.00,VWS V14.01,2013-08-21 21:29:00,
2013-08-21 16:34:00,91.0,72.6,29.98,SW,225,7.0,10.0,55,0.00,,CLR,0.00,541.00,VWS V14.01,2013-08-21 21:34:00,
2013-08-21 16:39:00,91.1,72.2,29.98,SW,236,6.0,9.0,54,0.00,,CLR,0.00,527.00,VWS V14.01,2013-08-21 21:39:00,
2013-08-21 16:44:00,91.0,72.1,29.98,SW,219,5.0,7.0,54,0.00,,CLR,0.00,476.00,VWS V14.01,2013-08-21 21:44:00,
2013-08-21 16:49:00,91.3,71.8,29.98,SW,231,5.0,7.0,53,0.00,,CLR,0.00,512.00,VWS V14.01,2013-08-21 21:49:00,
2013-08-21 16:54:00,91.5,73.1,29.98,SSW,207,9.0,11.0,55,0.00,,CLR,0.00,482.00,VWS V14.01,2013-08-21 21:54:00,
2013-08-21 16:59:00,91.6,72.6,29.98,SW,230,6.0,8.0,54,0.00,,CLR,0.00,468.00,VWS V14.01,2013-08-21 21:59:00,
2013-08-21 17:04:00,91.4,71.9,29.98,SW,224,12.0,12.0,53,0.00,,CLR,0.00,464.00,VWS V14.01,2013-08-21 22:04:00,
2013-08-21 17:09:00,91.5,73.1,29.98,WSW,242,6.0,9.0,55,0.00,,CLR,0.00,446.00,VWS V14.01,2013-08-21 22:09:00,
2013-08-21 17:14:00,91.3,72.3,29.98,SW,232,5.0,11.0,54,0.00,,CLR,0.00,429.00,VWS V14.01,2013-08-21 22:14:00,
2013-08-21 17:19:00,90.9,72.0,29.98,SW,235,7.0,11.0,54,0.00,,CLR,0.00,418.00,VWS V14.01,2013-08-21 22:19:00,
2013-08-21 17:24:00,91.0,72.1,29.98,SW,228,6.0,10.0,54,0.00,,CLR,0.00,404.00,VWS V14.01,2013-08-21 22:24:00,
2013-08-21 17:29:00,90.5,72.1,29.98,SW,218,7.0,7.0,55,0.00,,CLR,0.00,237.00,VWS V14.01,2013-08-21 22:29:00,
2013-08-21 17:34:00,90.2,72.4,29.98,SW,230,8.0,9.0,56,0.00,,CLR,0.00,176.00,VWS V14.01,2013-08-21 22:34:00,
2013-08-21 17:39:00,89.5,71.7,29.98,SSW,212,5.0,6.0,56,0.00,,CLR,0.00,139.00,VWS V14.01,2013-08-21 22:39:00,
2013-08-21 17:44:00,88.8,72.1,29.98,SSW,198,5.0,6.0,58,0.00,,CLR,0.00,141.00,VWS V14.01,2013-08-21 22:44:00,
2013-08-21 17:49:00,88.5,71.8,29.98,SW,215,6.0,7.0,58,0.00,,CLR,0.00,148.00,VWS V14.01,2013-08-21 22:49:00,
2013-08-21 17:54:00,88.2,72.1,29.97,SW,216,5.0,6.0,59,0.00,,CLR,0.00,148.00,VWS V14.01,2013-08-21 22:54:00,
2013-08-21 17:59:00,88.0,72.4,29.97,SSW,201,3.0,6.0,60,0.00,,CLR,0.00,148.00,VWS V14.01,2013-08-21 22:59:00,
2013-08-21 18:04:00,88.0,72.4,29.97,SSW,207,5.0,6.0,60,0.00,,CLR,0.00,156.00,VWS V14.01,2013-08-21 23:04:00,
2013-08-21 18:09:00,88.3,72.7,29.97,SSW,212,5.0,6.0,60,0.00,,CLR,0.00,151.00,VWS V14.01,2013-08-21 23:09:00,
2013-08-21 18:14:00,88.3,72.7,29.97,SW,218,6.0,8.0,60,0.00,,CLR,0.00,139.00,VWS V14.01,2013-08-21 23:14:00,
2013-08-21 18:19:00,88.2,72.6,29.97,SW,217,7.0,7.0,60,0.00,,CLR,0.00,125.00,VWS V14.01,2013-08-21 23:19:00,
2013-08-21 18:24:00,88.2,72.1,29.97,SSW,212,4.0,6.0,59,0.00,,CLR,0.00,113.00,VWS V14.01,2013-08-21 23:24:00,
2013-08-21 18:29:00,87.9,71.8,29.96,SW,219,5.0,8.0,59,0.00,,CLR,0.00,105.00,VWS V14.01,2013-08-21 23:29:00,
2013-08-21 18:34:00,87.7,72.6,29.96,SW,218,5.0,5.0,61,0.00,,CLR,0.00,97.00,VWS V14.01,2013-08-21 23:34:00,
2013-08-21 18:39:00,87.2,71.6,29.96,SW,220,7.0,7.0,60,0.00,,CLR,0.00,90.00,VWS V14.01,2013-08-21 23:39:00,
2013-08-21 18:44:00,87.0,71.9,29.96,SW,230,5.0,8.0,61,0.00,,CLR,0.00,90.00,VWS V14.01,2013-08-21 23:44:00,
2013-08-21 18:49:00,87.0,72.4,29.96,SSW,213,3.0,5.0,62,0.00,,CLR,0.00,90.00,VWS V14.01,2013-08-21 23:49:00,
2013-08-21 18:54:00,86.9,72.3,29.96,SW,215,3.0,4.0,62,0.00,,CLR,0.00,88.00,VWS V14.01,2013-08-21 23:54:00,
2013-08-21 18:59:00,86.7,72.1,29.97,SW,222,5.0,5.0,62,0.00,,CLR,0.00,86.00,VWS V14.01,2013-08-21 23:59:00,
2013-08-21 19:04:00,86.5,72.4,29.96,SW,217,3.0,5.0,63,0.00,,CLR,0.00,77.00,VWS V14.01,2013-08-22 00:04:00,
2013-08-21 19:09:00,86.2,72.1,29.97,SW,222,4.0,4.0,63,0.00,,CLR,0.00,65.00,VWS V14.01,2013-08-22 00:09:00,
2013-08-21 19:14:00,85.7,72.6,29.97,SW,216,5.0,5.0,65,0.00,,CLR,0.00,49.00,VWS V14.01,2013-08-22 00:14:00,
2013-08-21 19:19:00,85.1,72.0,29.97,SSW,212,5.0,5.0,65,0.00,,CLR,0.00,39.00,VWS V14.01,2013-08-22 00:19:00,
2013-08-21 19:24:00,84.4,71.8,29.97,SW,219,4.0,4.0,66,0.00,,CLR,0.00,30.00,VWS V14.01,2013-08-22 00:24:00,
2013-08-21 19:29:00,83.7,71.6,29.97,SW,219,4.0,5.0,67,0.00,,CLR,0.00,23.00,VWS V14.01,2013-08-22 00:29:00,
2013-08-21 19:34:00,83.2,71.1,29.96,SW,226,2.0,5.0,67,0.00,,CLR,0.00,19.00,VWS V14.01,2013-08-22 00:34:00,
2013-08-21 19:39:00,82.8,71.2,29.97,SW,231,4.0,7.0,68,0.00,,CLR,0.00,16.00,VWS V14.01,2013-08-22 00:39:00,
2013-08-21 19:44:00,82.4,71.2,29.96,SW,222,4.0,5.0,69,0.00,,CLR,0.00,11.00,VWS V14.01,2013-08-22 00:44:00,
2013-08-21 19:49:00,82.0,71.3,29.96,SW,228,4.0,5.0,70,0.00,,CLR,0.00,9.00,VWS V14.01,2013-08-22 00:49:00,
2013-08-21 19:54:00,81.6,70.9,29.96,SW,216,4.0,4.0,70,0.00,,CLR,0.00,5.00,VWS V14.01,2013-08-22 00:54:00,
2013-08-21 19:59:00,81.2,70.5,29.96,SW,220,5.0,5.0,70,0.00,,CLR,0.00,0.00,VWS V14.01,2013-08-22 00:59:00,
2013-08-21 20:04:00,80.9,70.2,29.96,SSW,207,5.0,6.0,70,0.00,,CLR,0.00,0.00,VWS V14.01,2013-08-22 01:04:00,
2013-08-21 20:09:00,80.9,69.8,29.96,SW,221,3.0,5.0,69,0.00,,CLR,0.00,0.00,VWS V14.01,2013-08-22 01:09:00,
2013-08-21 20:14:00,81.0,69.9,29.97,SW,215,5.0,6.0,69,0.00,,CLR,0.00,0.00,VWS V14.01,2013-08-22 01:14:00,
2013-08-21 20:19:00,80.6,69.9,29.97,SSW,212,4.0,5.0,70,0.00,,CLR,0.00,0.00,VWS V14.01,2013-08-22 01:19:00,
2013-08-21 20:24:00,80.1,69.9,29.97,SSW,205,3.0,3.0,71,0.00,,CLR,0.00,0.00,VWS V14.01,2013-08-22 01:24:00,
2013-08-21 20:29:00,79.7,70.3,29.97,SSW,205,3.0,3.0,73,0.00,,CLR,0.00,0.00,VWS V14.01,2013-08-22 01:29:00,
2013-08-21 20:34:00,79.2,70.2,29.98,SSW,192,4.0,4.0,74,0.00,,CLR,0.00,0.00,VWS V14.01,2013-08-22 01:34:00,
2013-08-21 20:39:00,79.0,70.0,29.98,SSW,192,3.0,4.0,74,0.00,,CLR,0.00,0.00,VWS V14.01,2013-08-22 01:39:00,
2013-08-21 20:44:00,78.9,69.9,29.99,South,185,4.0,5.0,74,0.00,,CLR,0.00,0.00,VWS V14.01,2013-08-22 01:44:00,
2013-08-21 20:49:00,78.4,69.8,29.98,South,185,5.0,5.0,75,0.00,,CLR,0.00,0.00,VWS V14.01,2013-08-22 01:49:00,
2013-08-21 20:54:00,77.7,69.9,29.99,South,185,4.0,5.0,77,0.00,,CLR,0.00,0.00,VWS V14.01,2013-08-22 01:54:00,
2013-08-21 20:59:00,77.4,70.4,29.98,SSW,192,5.0,5.0,79,0.00,,CLR,0.00,0.00,VWS V14.01,2013-08-22 01:59:00,
2013-08-21 21:04:00,77.4,70.8,29.99,SSW,200,4.0,5.0,80,0.00,,CLR,0.00,0.00,VWS V14.01,2013-08-22 02:04:00,
2013-08-21 21:09:00,77.3,71.0,29.99,SSW,201,5.0,5.0,81,0.00,,CLR,0.00,0.00,VWS V14.01,2013-08-22 02:09:00,
2013-08-21 21:14:00,77.4,71.1,29.99,SSW,196,5.0,6.0,81,0.00,,CLR,0.00,0.00,VWS V14.01,2013-08-22 02:14:00,
2013-08-21 21:19:00,77.6,70.9,29.99,SSW,201,6.0,6.0,80,0.00,,CLR,0.00,0.00,VWS V14.01,2013-08-22 02:19:00,
2013-08-21 21:24:00,78.1,70.7,29.99,SSW,197,7.0,10.0,78,0.00,,CLR,0.00,0.00,VWS V14.01,2013-08-22 02:24:00,
2013-08-21 21:29:00,78.6,70.4,29.99,SSW,210,6.0,10.0,76,0.00,,CLR,0.00,0.00,VWS V14.01,2013-08-22 02:29:00,
2013-08-21 21:34:00,78.7,70.5,29.99,SSW,210,7.0,10.0,76,0.00,,CLR,0.00,0.00,VWS V14.01,2013-08-22 02:34:00,
2013-08-21 21:39:00,79.0,70.4,29.99,SSW,202,6.0,10.0,75,0.00,,CLR,0.00,0.00,VWS V14.01,2013-08-22 02:39:00,
2013-08-21 21:44:00,79.0,70.0,29.99,SSW,195,5.0,11.0,74,0.00,,CLR,0.00,0.00,VWS V14.01,2013-08-22 02:44:00,
2013-08-21 21:49:00,78.9,69.9,29.99,SW,214,5.0,10.0,74,0.00,,CLR,0.00,0.00,VWS V14.01,2013-08-22 02:49:00,
2013-08-21 21:54:00,78.6,70.0,29.99,SSW,202,6.0,8.0,75,0.00,,CLR,0.00,0.00,VWS V14.01,2013-08-22 02:54:00,
2013-08-21 21:59:00,78.5,70.3,29.99,SSW,205,6.0,10.0,76,0.00,,CLR,0.00,0.00,VWS V14.01,2013-08-22 02:59:00,
2013-08-21 22:04:00,78.7,70.1,29.99,SSW,193,7.0,7.0,75,0.00,,CLR,0.00,0.00,VWS V14.01,2013-08-22 03:04:00,
2013-08-21 22:09:00,78.5,70.3,30.00,SSW,195,5.0,7.0,76,0.00,,CLR,0.00,0.00,VWS V14.01,2013-08-22 03:09:00,
2013-08-21 22:14:00,78.5,70.3,30.00,South,190,6.0,10.0,76,0.00,,CLR,0.00,0.00,VWS V14.01,2013-08-22 03:14:00,
2013-08-21 22:19:00,78.5,69.9,30.00,South,181,9.0,9.0,75,0.00,,CLR,0.00,0.00,VWS V14.01,2013-08-22 03:19:00,
2013-08-21 22:25:00,78.5,69.9,30.00,SSW,195,7.0,9.0,75,0.00,,CLR,0.00,0.00,VWS V14.01,2013-08-22 03:25:00,
2013-08-21 22:30:00,78.5,69.9,30.01,South,191,5.0,8.0,75,0.00,,CLR,0.00,0.00,VWS V14.01,2013-08-22 03:30:00,
2013-08-21 22:35:00,78.3,69.7,30.01,SSW,198,4.0,6.0,75,0.00,,CLR,0.00,0.00,VWS V14.01,2013-08-22 03:35:00,
2013-08-21 22:40:00,78.0,69.4,30.01,SSW,212,7.0,10.0,75,0.00,,CLR,0.00,0.00,VWS V14.01,2013-08-22 03:40:00,
2013-08-21 22:45:00,77.8,69.6,30.01,SW,220,6.0,9.0,76,0.00,,CLR,0.00,0.00,VWS V14.01,2013-08-22 03:45:00,
2013-08-21 22:50:00,77.9,69.7,30.01,SW,222,8.0,9.0,76,0.00,,CLR,0.00,0.00,VWS V14.01,2013-08-22 03:50:00,
2013-08-21 22:55:00,78.3,69.7,30.01,SW,230,5.0,11.0,75,0.00,,CLR,0.00,0.00,VWS V14.01,2013-08-22 03:55:00,
2013-08-21 23:00:00,78.3,69.3,30.01,SW,228,6.0,11.0,74,0.00,,CLR,0.00,0.00,VWS V14.01,2013-08-22 04:00:00,
2013-08-21 23:01:00,78.3,69.3,30.01,SW,230,7.0,7.0,74,0.00,,CLR,0.00,0.00,VWS V14.01,2013-08-22 04:01:00,
2013-08-21 23:02:00,78.4,69.4,30.01,SW,222,5.0,11.0,74,0.00,,CLR,0.00,0.00,VWS V14.01,2013-08-22 04:02:00,
2013-08-21 23:07:00,78.5,69.1,30.01,SSW,205,10.0,12.0,73,0.00,,CLR,0.00,0.00,VWS V14.01,2013-08-22 04:07:00,
2013-08-21 23:12:00,78.5,69.1,30.00,SW,216,5.0,12.0,73,0.00,,CLR,0.00,0.00,VWS V14.01,2013-08-22 04:12:00,
2013-08-21 23:17:00,78.3,68.9,30.00,SW,214,9.0,12.0,73,0.00,,CLR,0.00,0.00,VWS V14.01,2013-08-22 04:17:00,
2013-08-21 23:22:00,78.0,69.1,30.00,SW,218,9.0,12.0,74,0.00,,CLR,0.00,0.00,VWS V14.01,2013-08-22 04:22:00,
2013-08-21 23:27:00,77.9,68.9,30.00,SSW,208,6.0,9.0,74,0.00,,CLR,0.00,0.00,VWS V14.01,2013-08-22 04:27:00,
2013-08-21 23:32:00,77.3,68.8,30.01,SSW,206,9.0,10.0,75,0.00,,CLR,0.00,0.00,VWS V14.01,2013-08-22 04:32:00,
2013-08-21 23:37:00,77.2,69.1,30.01,SW,221,6.0,9.0,76,0.00,,CLR,0.00,0.00,VWS V14.01,2013-08-22 04:37:00,
2013-08-21 23:42:00,77.0,68.9,30.01,SSW,213,7.0,10.0,76,0.00,,CLR,0.00,0.00,VWS V14.01,2013-08-22 04:42:00,
2013-08-21 23:47:00,76.6,68.9,30.01,SSW,213,9.0,9.0,77,0.00,,CLR,0.00,0.00,VWS V14.01,2013-08-22 04:47:00,
2013-08-21 23:52:00,76.4,68.7,30.01,SW,216,8.0,11.0,77,0.00,,CLR,0.00,0.00,VWS V14.01,2013-08-22 04:52:00,
2013-08-21 23:57:00,76.4,69.0,30.01,SSW,207,10.0,12.0,78,0.00,,CLR,0.00,0.00,VWS V14.01,2013-08-22 04:57:00,